This is the latest recevied weather packets stored in our database for station/object DO2HBA-6. If no packets are shown the sender has not sent any weather packets the latest 10 day(s).
| Time | Temp. | Humidity | Pressure | Rain* | Wind** | Luminosity | Snow |
|---|---|---|---|---|---|---|---|
| 1778007895 | 18.89° C | 10% | 1007.3 hPa | 0 mm | - | - | - |
| 1778006694 | 19.44° C | 13% | 1007.3 hPa | 0 mm | - | - | - |
| 1778006394 | 19.44° C | 15% | 1007.1 hPa | 0 mm | - | - | - |
| 1778006094 | 20° C | 18% | 1007.1 hPa | 0 mm | - | - | - |
| 1778005793 | 20° C | 18% | 1006.8 hPa | 0 mm | - | - | - |
| 1778005493 | 20° C | 20% | 1006.6 hPa | 0 mm | - | - | - |
| 1778005193 | 21.11° C | 24% | 1006.5 hPa | 0 mm | - | - | - |
| 1778004892 | 21.11° C | 25% | 1006.4 hPa | 0 mm | - | - | - |
| 1778004592 | 21.67° C | 26% | 1006.3 hPa | 0 mm | - | - | - |
| 1778004292 | 22.78° C | 30% | 1006.1 hPa | 0 mm | - | - | - |
| 1778002790 | 24.44° C | 32% | 1005.3 hPa | 0 mm | - | - | - |
| 1778002490 | 25° C | 33% | 1005.3 hPa | 0 mm | - | - | - |
| 1778002190 | 25° C | 33% | 1005.2 hPa | 0 mm | - | - | - |
| 1778001889 | 25° C | 33% | 1005.3 hPa | 0 mm | - | - | - |
| 1778001589 | 25° C | 33% | 1005.3 hPa | 0 mm | - | - | - |
| 1778001289 | 25.56° C | 33% | 1005.3 hPa | 0 mm | - | - | - |
| 1778000989 | 25.56° C | 33% | 1005.3 hPa | 0 mm | - | - | - |
| 1778000688 | 25.56° C | 32% | 1005.3 hPa | 0 mm | - | - | - |
| 1778000388 | 25.56° C | 32% | 1005.2 hPa | 0 mm | - | - | - |
| 1777999187 | 26.11° C | 32% | 1005.2 hPa | 0 mm | - | - | - |
| 1777998887 | 26.11° C | 32% | 1005.3 hPa | 0 mm | - | - | - |
| 1777998586 | 26.67° C | 32% | 1005.3 hPa | 0 mm | - | - | - |
| 1777998286 | 26.67° C | 31% | 1005.3 hPa | 0 mm | - | - | - |
| 1777997986 | 26.67° C | 31% | 1005.3 hPa | 0 mm | - | - | - |
| 1777997385 | 27.78° C | 30% | 1005.4 hPa | 0 mm | - | - | - |
* Rain latest hour (hover to see other rain measurements)
** Current wind speed in m/s (hover to see current wind gust speed)